C/2012 K1 ( PanSTARRS )

Japanese version
Home page
Updated on September 20, 2014

---------------------------------------------------------------------

* Profile

Discovery Date May 19, 2012
Magnitude 19.7 mag
Discoverer Pan-STARRS 1 telescope (Haleakala)

* Pictures

* Orbital Elements

Epoch 2014 Aug. 11.0 TT = JDT 2456880.5
T 2014 Aug. 27.65587 TT                                 MPC
q   1.0545309            (2000.0)            P               Q
z  -0.0001974      Peri.  203.10777     -0.47150374     +0.78072062
 +/-0.0000003      Node   317.73800     +0.87392500     +0.47592331
e   1.0002082      Incl.  142.42832     +0.11806486     -0.40493494
From 5845 observations 2012 May 14-2014 July 7, mean residual 0".4.

* Finding Charts

* Magnitudes Graph

        m1 = 5.5 + 5 log d + 8.5 log r

---------------------------------------------------------------------

The orbital elements are published on M.P.E.C. 2014-P41.
The charts are made with StellaNavigator Ver.8 (AstroArts).
The magnitudes graphs are made with Comet for Windows.

---------------------------------------------------------------------

Copyright(C) Seiichi Yoshida (comet@aerith.net). All rights reserved.